Regional Weather Roundup
Issued by NWS

Home | Current Version | Previous Version | Graphics & Text | Print | Product List | Glossary On
Versions: 1 2 3 4 5 6 7 8 9 10 11 12 13 14 15 16 17 18 19 20 21 22 23 24 25 26 27 28 29 30 31 32 33 34 35 36 37 38 39 40 41 42 43 44 45 46 47 48 49 50
000
ASUS44 KMEG 121610
RWRTN
TENNESSEE HOURLY STATE WEATHER ROUNDUP
NATIONAL WEATHER SERVICE MEMPHIS TN
1000 AM CST FRI FEB 12 2016

TNZ002-004-019-021-049-052-054-088>092-121700-
WEST TENNESSEE

CITY           SKY/WX    TMP DP  RH WIND       PRES   REMARKS
MEMPHIS INTL   SUNNY     46  27  47 NW7       30.24R
NWS MEMPHIS      N/A     43 N/A N/A MISG        N/A
JACKSON        SUNNY     42  26  53 NW7       30.22R
UNION CITY     CLOUDY    34  23  64 N5        30.23R WCI  30
PARIS          CLOUDY    34  21  60 CALM      30.22R
LEXINGTON      CLOUDY    39  23  52 VRB3      30.19R
$$

TNZ008-025-027-028-033-062-065-066-121700-
NORTH MIDDLE TENNESSEE

CITY           SKY/WX    TMP DP  RH WIND       PRES   REMARKS
NASHVILLE      CLOUDY    37  22  54 N3        30.20R
CLARKSVILLE    CLOUDY    32  27  81 N7        30.22R WCI  26
SMYRNA         PTSUNNY   35  26  70 N6        30.21R WCI  30
COOKEVILLE     PTSUNNY   32  30  93 N3        30.14R
CROSSVILLE     CLOUDY    34  30  85 W3        30.11S
$$

TNZ061-075-076-078-094-096-097-121700-
SOUTH MIDDLE TENNESSEE

CITY           SKY/WX    TMP DP  RH WIND       PRES   REMARKS
FAYETTEVILLE   SUNNY     45  28  53 VRB5G14   30.15R
TULLAHOMA      SUNNY     43  25  49 CALM      30.14S
WINCHESTER     MOSUNNY   43  30  61 CALM      30.15S
MCMINNVILLE    CLOUDY    36  28  75 N6        30.15S WCI  31
COLUMBIA       MOSUNNY   41  28  60 NW3       30.16R
SHELBYVILLE    MOSUNNY   43  28  56 CALM      30.17R
$$

TNZ017-018-042-046-047-121700-
NORTHEAST TENNESSEE

CITY           SKY/WX    TMP DP  RH WIND       PRES   REMARKS
TRI CITIES     SNOW      28  25  88 CALM      30.11F VSB 1/2
$$

TNZ012-013-036-069-073-074-121700-
CENTRAL EAST TENNESSEE

CITY           SKY/WX    TMP DP  RH WIND       PRES   REMARKS
KNOXVILLE      CLOUDY    31  28  89 NW7       30.14S WCI  24
OAK RIDGE      LGT SNOW  32  29  88 VRB5      30.16F FOG     WCI  27
GATLINBURG     PTSUNNY   28  27  93 CALM      30.12F
MORRISTOWN     FOG       30  28  93 CALM      30.11F VSB 3/4
$$

TNZ083-085-099-121700-
SOUTHEAST TENNESSEE

CITY           SKY/WX    TMP DP  RH WIND       PRES   REMARKS
CHATTANOOGA    PTSUNNY   40  28  62 N3        30.15F
$$

SKY/WX REPORTED AS FAIR MEANS FEW OR NO CLOUDS BELOW
12 THOUSAND FEET.




USA.gov is the U.S. government's official web portal to all federal, state and local government web resources and services.